Bartow, FL

11:38 AM EST on February 20, 2017 (GMT -0500)
Bartow Municipal

Weather History for KBOW - July, 2013

Change the Weather History Date:

Wednesday, July 3, 2013

  Actual Average Record
Temperature  
Mean Temperature 79 °F -  
Max Temperature 87 °F 92 °F 97 °F (1970)
Min Temperature 71 °F 72 °F 65 °F (1975)
Cooling Degree Days 14    
Growing Degree Days 29 (Base 50)    
Moisture  
Dew Point 74 °F    
Average Humidity 92    
Maximum Humidity 100    
Minimum Humidity 62    
Precipitation  
Precipitation 0.08 in - - ()
Sea Level Pressure  
Sea Level Pressure 30.11 in    
Wind  
Wind Speed 4 mph (ESE)    
Max Wind Speed 13 mph    
Max Gust Speed 18 mph    
Visibility 6 miles    
Events Fog , Rain , Thunderstorm    
Averages and records for this station are not official NWS values.
T = Trace of Precipitation, MM = Missing Value Source: NWS Daily Summary

Daily Weather History Graph

Daily Weather History Graph

Search for Another Location

Airport or City:

Trip Planner

Search our weather history database for the weather conditions in past years. The results will help you decide how hot, cold, wet, or windy it might be!

Date:

Astronomy

Jul. 03, 2013 Rise Set
Actual Time 6:35 AM EDT 8:27 PM EDT
Civil Twilight 6:08 AM EDT 8:53 PM EDT
Nautical Twilight 5:36 AM EDT 9:26 PM EDT
Astronomical Twilight 5:02 AM EDT 9:59 PM EDT
Moon 3:02 AM EDT (7/3) 4:44 PM EDT (7/3)
Length of Visible Light 14h 45m
Length of Day
13h 52m
Waning Crescent, 18% of the Moon is Illuminated
Jul 3
Waning Crescent
Jul 8
New
Jul 15
First Quarter
Jul 22
Full
Jul 29
Last Quarter

Hourly Weather History & Observations

Time (EDT) Temp. Heat Index Dew Point Humidity Pressure Visibility Wind Dir Wind Speed Gust Speed Precip Events Conditions
12:15 AM 71.6 °F - - N/A% 30.12 in 8.0 mi ESE 3.5 mph - N/A   Partly Cloudy
12:35 AM 71.6 °F - - N/A% 30.11 in 8.0 mi East 3.5 mph - N/A   Clear
12:55 AM 71.6 °F - - N/A% 30.11 in 8.0 mi ESE 3.5 mph - N/A   Clear
1:15 AM 71.6 °F - - N/A% 30.11 in 5.0 mi East 4.6 mph - N/A   Haze
1:35 AM 71.6 °F - - N/A% 30.11 in 6.0 mi East 5.8 mph - N/A   Haze
1:55 AM 71.6 °F - - N/A% 30.10 in 8.0 mi ENE 3.5 mph - N/A   Partly Cloudy
2:15 AM 71.6 °F - - N/A% 30.10 in 9.0 mi ENE 4.6 mph - N/A   Partly Cloudy
2:35 AM 71.6 °F - - N/A% 30.09 in 2.0 mi East 4.6 mph - N/A   Mostly Cloudy
2:55 AM 71.6 °F - - N/A% 30.08 in 1.8 mi ENE 4.6 mph - N/A   Overcast
3:15 AM 71.6 °F - - N/A% 30.08 in 4.0 mi East 4.6 mph - N/A   Haze
3:35 AM 71.6 °F - - N/A% 30.08 in 5.0 mi ESE 3.5 mph - N/A   Haze
3:55 AM 71.6 °F - - N/A% 30.08 in 4.0 mi ESE 3.5 mph - N/A   Haze
4:15 AM 71.6 °F - - N/A% 30.09 in 5.0 mi SE 4.6 mph - N/A   Haze
4:35 AM 71.6 °F - - N/A% 30.09 in 5.0 mi Calm Calm - N/A   Haze
4:55 AM 71.6 °F - - N/A% 30.09 in 4.0 mi ESE 3.5 mph - N/A   Haze
5:15 AM 71.6 °F - - N/A% 30.09 in 5.0 mi ESE 4.6 mph - N/A   Haze
5:35 AM 71.6 °F - - N/A% 30.09 in 1.0 mi ESE 3.5 mph - N/A   Overcast
5:55 AM 71.6 °F - - N/A% 30.10 in 0.5 mi ESE 4.6 mph - N/A Fog Fog
6:15 AM 71.6 °F - - N/A% 30.09 in 0.2 mi East 4.6 mph - N/A Fog Fog
6:35 AM 71.6 °F - - N/A% 30.10 in 0.2 mi ESE 3.5 mph - N/A Fog Fog
6:55 AM 71.6 °F - - N/A% 30.10 in 0.2 mi East 3.5 mph - N/A Fog Fog
7:15 AM 71.6 °F - - N/A% 30.10 in 0.2 mi East 3.5 mph - N/A Fog Fog
7:47 AM 71.6 °F - - N/A% 30.11 in 5.0 mi ESE 3.5 mph - N/A   Haze
8:47 AM 75.2 °F - - N/A% 30.13 in 7.0 mi ESE 6.9 mph - N/A   Scattered Clouds
9:47 AM 80.6 °F 86.2 °F 75.2 °F 84% 30.13 in 7.0 mi SE 11.5 mph - N/A   Mostly Cloudy
10:47 AM 84.2 °F 90.9 °F 73.4 °F 70% 30.13 in 7.0 mi SE 11.5 mph - N/A   Scattered Clouds
11:47 AM 84.2 °F 89.6 °F 71.6 °F 66% 30.13 in 7.0 mi SE 12.7 mph - N/A   Mostly Cloudy
12:47 PM 87.8 °F 95.6 °F 73.4 °F 62% 30.11 in 7.0 mi SE 10.4 mph - N/A   Mostly Cloudy
1:47 PM 87.8 °F 95.6 °F 73.4 °F 62% 30.09 in 7.0 mi ESE 12.7 mph 18.4 mph N/A   Mostly Cloudy
2:47 PM 73.4 °F - 73.4 °F 100% 30.09 in 7.0 mi East 6.9 mph - N/A   Overcast
3:35 PM 75.2 °F - 75.2 °F 100% 30.08 in 8.0 mi Calm Calm - N/A   Clear
3:55 PM 77.0 °F - 77.0 °F 100% 30.09 in 7.0 mi Calm Calm - N/A   Clear
4:15 PM 77.0 °F - 77.0 °F 100% 30.09 in 7.0 mi ESE 5.8 mph - N/A   Unknown
4:35 PM 78.8 °F - 75.2 °F 89% 30.07 in 8.0 mi East 4.6 mph - N/A   Clear
4:55 PM 77.0 °F - 75.2 °F 94% 30.08 in 8.0 mi ESE 5.8 mph - N/A   Partly Cloudy
5:15 PM 75.2 °F - 71.6 °F 89% 30.10 in 8.0 mi South 9.2 mph - N/A Thunderstorm Mostly Cloudy
5:35 PM 73.4 °F - 73.4 °F 100% 30.10 in 2.5 mi South 4.6 mph - 0.02 in Rain Light Rain
5:55 PM 73.4 °F - 73.4 °F 100% 30.11 in 5.0 mi SSW 4.6 mph - 0.02 in   Scattered Clouds
6:15 PM 73.4 °F - 73.4 °F 100% 30.10 in 6.0 mi South 4.6 mph - N/A Rain Light Rain
6:35 PM 73.4 °F - 73.4 °F 100% 30.10 in 9.0 mi Calm Calm - N/A   Mostly Cloudy
6:55 PM 73.4 °F - 73.4 °F 100% 30.10 in 0.5 mi Calm Calm - 0.05 in Rain Light Rain
7:15 PM 73.4 °F - 73.4 °F 100% 30.10 in 8.0 mi SE 3.5 mph - N/A   Scattered Clouds
7:35 PM 73.4 °F - 73.4 °F 100% 30.11 in 8.0 mi SSE 3.5 mph - N/A   Partly Cloudy
7:55 PM 73.4 °F - 73.4 °F 100% 30.12 in 9.0 mi Calm Calm - N/A   Partly Cloudy
8:15 PM 73.4 °F - 73.4 °F 100% 30.12 in 8.0 mi Calm Calm - N/A   Partly Cloudy
8:35 PM 73.4 °F - 73.4 °F 100% 30.12 in 9.0 mi Calm Calm - N/A   Partly Cloudy
8:55 PM 73.4 °F - - N/A% 30.11 in 10.0 mi ENE 4.6 mph - N/A   Scattered Clouds
9:15 PM 73.4 °F - - N/A% 30.12 in 9.0 mi ENE 4.6 mph - N/A   Scattered Clouds
9:35 PM 73.4 °F - - N/A% 30.13 in 8.0 mi East 3.5 mph - N/A   Scattered Clouds
9:55 PM 73.4 °F - - N/A% 30.14 in 2.5 mi East 9.2 mph - 0.01 in Rain Light Rain
10:15 PM 73.4 °F - - N/A% 30.14 in 5.0 mi East 6.9 mph - N/A Rain Light Rain
10:35 PM 71.6 °F - - N/A% 30.15 in 8.0 mi ESE 6.9 mph - N/A   Scattered Clouds
10:55 PM 71.6 °F - - N/A% 30.14 in 10.0 mi ENE 4.6 mph - N/A   Partly Cloudy
11:15 PM 71.6 °F - - N/A% 30.14 in 10.0 mi East 5.8 mph - N/A   Partly Cloudy
11:35 PM 71.6 °F - - N/A% 30.16 in 9.0 mi East 4.6 mph - N/A   Clear
11:55 PM 71.6 °F - - N/A% 30.16 in 9.0 mi ESE 5.8 mph - N/A   Mostly Cloudy